sat.trackr.live / text

‹ back to catalog

STARLINK-30352

NORAD 57736 · 2023-131E

PAYLOAD ACTIVE UNKNOWN

§ Identity

Operator
Country
US
Launch date
2023-09-01
Launch site
AFETR
Launch vehicle
Mass (kg)
RCS (m²)

Purposes: comms

External: N2YO · Heavens-Above · Gunter

§ Orbital elements

Epoch: 2026-09-20T10:41:06.169056Z

Period
94.27 min
Inclination
43.0004°
Eccentricity
0.0000907
Mean motion
15.27600152 rev/d
Perigee alt
482.4 km
Apogee alt
483.6 km
Semi-major
6,861.1 km
B*
-1.7184e-4
RAAN
160.0854°
Arg perigee
302.7140°
Mean anomaly
57.3624°
Rev number
16,961

§ Raw data

STARLINK-303521 57736U 23131E   26263.44521029 -.00004990  00000+0 -17184-3 0  99912 57736  43.0004 160.0854 0000907 302.7140  57.3624 15.27600152169617

JSON: /api/v1/satellites/57736 · /tle

For live sub-satellite position, see the globe view (requires WebGL).

§ Visibility from observer

Set your observer location to see the next 7 days of passes ≥ 10°. The values pass through the URL so the page stays shareable.

No JS? Fill the form by hand. The geolocation button needs JavaScript.